Regional Weather Roundup
Issued by NWS

Home | Current Version | Previous Version | Text Only | Print | Product List | Glossary Off
Versions: 1 2 3 4 5 6 7 8 9 10 11 12 13 14 15 16 17 18 19 20 21 22 23 24 25 26 27 28 29 30 31 32 33 34 35 36 37 38 39 40 41 42 43 44 45 46 47 48 49 50

000
ASUS43 KMPX 211710
RWRMN
WEATHER ROUNDUP FOR MINNESOTA
NATIONAL WEATHER SERVICE TWIN CITIES/CHANHASSEN MN
1200 PM CDT THU AUG 21 2014


NOTE: "FAIR" INDICATES FEW OR NO CLOUDS BELOW 12,000 FEET WITH NO
SIGNIFICANT WEATHER AND/OR OBSTRUCTIONS TO VISIBILITY. N/A MEANS
CURRENT SKY AND/OR WEATHER CONDITIONS ARE NOT AVAILABLE.

MNZ060>063-068>070-211800-
   Twin Cities Metro

CITY           SKY/WX    TMP DP  RH WIND       PRES   REMARKS
TWIN CITIES    CLOUDY    78  70  76 SE10      29.78S
ST PAUL        CLOUDY    78  70  76 SE9       29.78S
CRYSTAL        CLOUDY    78  69  73 SE6       29.76F
BLAINE         CLOUDY    75  72  88 E8        29.78F
LAKEVILLE      MOSUNNY   81  72  74 S13G20    29.78R
EDEN PRAIRIE   CLOUDY    79  71  76 SE7       29.76S
SOUTH ST PAUL  CLOUDY    78  69  73 SE7       29.78F
LAKE ELMO      CLOUDY    75  70  83 SE6       29.80F
$$
MNZ001>005-007-008-013>017-022>024-027-028-211800-
   Northwest Minnesota

CITY           SKY/WX    TMP DP  RH WIND       PRES   REMARKS
BEMIDJI        CLOUDY    69  63  83 E8        29.82S
HALLOCK        CLOUDY    72  66  83 CALM      29.80S
ROSEAU         CLOUDY    66  61  82 E8        29.83S
WARROAD        CLOUDY    64  61  88 E7        29.85S
THIEF RVR FALL PTSUNNY   73  66  78 SE8       29.79F
CROOKSTON      PTSUNNY   75  66  73 SW9       29.78S
FOSSTON        PTSUNNY   73  64  73 S5        29.81S
DETROIT LAKES  CLOUDY    72  64  78 SE6       29.81S
MOORHEAD       PTSUNNY   73  72  94 S7        29.78S
PARK RAPIDS    CLOUDY    74  65  73 SE8       29.81S
MAHNOMEN       CLOUDY    72  65  79 SE7       29.80S
$$
MNZ006-009>011-018-025>026-211800-
   North Central Minnesota

CITY           SKY/WX    TMP DP  RH WIND       PRES   REMARKS
BAUDETTE       CLOUDY    66  61  84 E8        29.85F
FLAG ISLAND    CLOUDY    64  61  88 SE6       29.85S
INTL FALLS     PTSUNNY   69  60  73 E10       29.88S
WASKISH        CLOUDY    66  63  88 CALM      29.85S
BIG FORK       PTSUNNY   70  63  78 SE6       29.87R
LONGVILLE      CLOUDY    66  64  94 E3        29.84R
GRAND RAPIDS   CLOUDY    66  61  82 SE7       29.86S
CRANE LAKE     PTSUNNY   68  61  77 CALM      29.90F
ORR            PTSUNNY   70  59  68 SE8       29.86S
COOK           PTSUNNY   68  61  77 E6        29.88S
WALKER         CLOUDY    66  63  90 E7        29.83S
$$
MNZ012-019>021-037-211800-
   Northeast Minnesota

CITY           SKY/WX    TMP DP  RH WIND       PRES   REMARKS
DULUTH         CLOUDY    64  60  87 E14       29.88F
ELY            CLOUDY    66  57  72 E8        29.92S
HIBBING        PTSUNNY   72  61  68 SE16      29.88S
EVELETH        CLOUDY    68  59  73 SE8       29.90S
DULUTH HARBOR  CLOUDY    63  61  94 NE21      29.88F
TWO HARBORS    CLOUDY    63  57  82 E12G17    29.89S
SILVER BAY     CLOUDY    59  59 100 NE12      29.92R
GRAND MARAIS     N/A     60  59  96 E10       29.95S
G MARAIS ARPRT PTSUNNY   64  57  77 E9        29.98S
$$
MNZ029>031-032-039>041-046>048-054>057-064-211800-
   West Central Minnesota

CITY           SKY/WX    TMP DP  RH WIND       PRES   REMARKS
FERGUS FALLS   CLOUDY    72  64  78 E3        29.78R
WHEATON        MOSUNNY   73  68  83 SW3       29.78S
MORRIS         SUNNY     77  72  83 CALM      29.76R
ALEXANDRIA     CLOUDY    73  69  87 SE7       29.80S
ELBOW LAKE     CLOUDY    72  69  91 S5        29.78R
WADENA         CLOUDY    72  66  83 E5        29.80S
APPLETON       PTSUNNY   81  70  69 SW6       29.75R
BENSON         CLOUDY    75  72  88 S6        29.75F
ORTONVILLE     MOSUNNY   79  70  73 CALM      29.76R
MADISON        SUNNY     81  73  78 CALM      29.74S
WILLMAR        PTSUNNY   79  72  78 SW5       29.76F
$$
MNZ033>034-036-042>043-049>051-058-059-211800-
   Central Minnesota

CITY           SKY/WX    TMP DP  RH WIND       PRES   REMARKS
ST CLOUD       CLOUDY    73  68  84 E7        29.78R
SAUK CENTRE    CLOUDY    73  69  86 E5        29.79R
PAYNESVILLE    CLOUDY    73  69  89 SE5       29.78R
AITKIN         CLOUDY    66  61  82 E9        29.84R
PINE RIVER     CLOUDY    68  64  88 E12       29.87R
BRAINERD       CLOUDY    70  65  84 SE8       29.83R
STAPLES        CLOUDY    72  66  83 E6        29.81R
LONG PRAIRIE   CLOUDY    70  66  88 E8        29.80R
LITTLE FALLS   PTSUNNY   70  64  83 E7        29.81R
LITCHFIELD     MOSUNNY   81  75  83 CALM      29.76F
BUFFALO        CLOUDY    76  69  79 CALM      29.78S
MAPLE LAKE     CLOUDY    77  72  85 CALM      29.78S
$$
MNZ037-044-045-052-053-211800-
   East Central Minnesota

CITY           SKY/WX    TMP DP  RH WIND       PRES   REMARKS
PRINCETON      CLOUDY    73  70  88 E5        29.80R
MORA           CLOUDY    68  64  88 E5        29.83S
CAMBRIDGE      PTSUNNY   75  64  69 E6        29.79R
RUSH CITY      CLOUDY    72  67  86 CALM      29.82R
MOOSE LAKE     CLOUDY    64  61  88 NE7       29.84R
HINCKLEY       CLOUDY    72  68  88 SE8       29.83S
CLOQUET        CLOUDY    63  61  94 E10       29.87F FOG
MCGREGOR       CLOUDY    64  63  94 E8        29.86S
$$
MNZ071>073-080-081-089-090-097-098-211800-
   Southwest Minnesota

CITY           SKY/WX    TMP DP  RH WIND       PRES   REMARKS
MONTEVIDEO     CLOUDY    82  81  94 W3        29.75F HX  95
GRANITE FALLS  MOSUNNY  N/A N/A N/A SW6       29.75F
CANBY          MOSUNNY   84  73  68 SW7       29.75S HX  90
MARSHALL       PTSUNNY   84  72  65 NW6       29.73S
REDWOOD FALLS  PTSUNNY   82  73  74 SW9       29.72F
OLIVIA         PTSUNNY   79  72  78 SW7       29.73S
PIPESTONE      MOSUNNY   81  73  78 W5        29.78S
WINDOM         MOSUNNY   84  70  61 S15       29.77R
WORTHINGTON    MOSUNNY   84  21  10 SW14G21   29.80S
JACKSON        PTSUNNY   81  70  69 SW10      29.79F
TRACY          MOSUNNY   83  75  76 SW6       29.76R HX  91
SLAYTON        SUNNY     82  74  74 W6        29.79R
$$
MNZ065>067-074>077-082>085-091>093-211800-
   South Central Minnesota

CITY           SKY/WX    TMP DP  RH WIND       PRES   REMARKS
MANKATO        SUNNY     81  72  74 S15       29.76S
NEW ULM        SUNNY     82  75  78 S9        29.73F
ST JAMES       MOSUNNY   82  72  69 S13G18    29.77R
FAIRMONT       PTSUNNY   79  70  73 MISG      29.77F
GLENCOE        MOSUNNY   83  72  69 S9        29.75F
FARIBAULT      SUNNY     84  66  54 S13G21    29.78F
OWATONNA       SUNNY     81  70  69 S14       29.80F
WASECA         MOSUNNY   79  66  65 S17G25    29.81S
ALBERT LEA     LGT RAIN  72  72 100 S12       29.81F
$$
MNZ078>079-086>088-094>096-211800-
   Southeast Minnesota

CITY           SKY/WX    TMP DP  RH WIND       PRES   REMARKS
ROCHESTER      PTSUNNY   76  70  82 S22G30    29.84S
RED WING       CLOUDY    79  72  78 SE8       29.80R
STANTON        MOSUNNY   82  70  65 S8G18     29.78S
DODGE CENTER   MOSUNNY   79  72  78 S21       29.82F
WINONA         CLOUDY    77  70  78 SE5       29.84R
AUSTIN         MOSUNNY   72  70  94 S12       29.82F
PRESTON        CLOUDY    73  73  98 S14G20    29.87R
$$
ABBREVIATIONS USED IN REMARKS
   TC - TEMPERATURES IN CELSIUS
  WCI - WIND CHILL INDEX
   HX - HEAT INDEX
  VSB - VISIBILITY
$$



USA.gov is the U.S. government's official web portal to all federal, state and local government web resources and services.